Time,TemperatureF,DewpointF,PressureIn,WindDirection,WindDirectionDegrees,WindSpeedMPH,WindSpeedGustMPH,Humidity,HourlyPrecipIn,Conditions,Clouds,dailyrainin,SoftwareType,DateUTC
2013-01-17 00:02:00,43.0,-99.9,30.41,South,175,3.0,6.0,0,-99.99,,,-99.99,,2013-01-17 08:02:00,
2013-01-17 00:12:00,44.0,-99.9,30.41,SE,140,3.0,8.0,0,-99.99,,,-99.99,,2013-01-17 08:12:00,
2013-01-17 00:22:00,44.0,-99.9,30.41,SE,140,3.0,8.0,0,-99.99,,,-99.99,,2013-01-17 08:22:00,
2013-01-17 00:44:00,42.0,-99.9,30.41,South,180,3.0,6.0,0,-99.99,,,-99.99,,2013-01-17 08:44:00,
2013-01-17 00:53:00,42.0,-99.9,30.41,South,180,3.0,6.0,0,-99.99,,,-99.99,,2013-01-17 08:53:00,
2013-01-17 01:03:00,43.0,-99.9,30.41,SE,140,3.0,5.0,0,-99.99,,,-99.99,,2013-01-17 09:03:00,
2013-01-17 01:12:00,43.0,-99.9,30.41,SE,145,3.0,7.0,0,-99.99,,,-99.99,,2013-01-17 09:12:00,
2013-01-17 01:22:00,42.0,-99.9,30.41,SE,125,1.0,5.0,0,-99.99,,,-99.99,,2013-01-17 09:22:00,
2013-01-17 01:33:00,42.0,-99.9,30.41,SE,125,1.0,5.0,0,-99.99,,,-99.99,,2013-01-17 09:33:00,
2013-01-17 01:43:00,43.0,-99.9,30.41,SSW,205,3.0,5.0,0,-99.99,,,-99.99,,2013-01-17 09:43:00,
2013-01-17 01:53:00,43.0,-99.9,30.41,SSW,205,3.0,5.0,0,-99.99,,,-99.99,,2013-01-17 09:53:00,
2013-01-17 02:02:00,43.0,-99.9,30.41,SE,145,6.0,7.0,0,-99.99,,,-99.99,,2013-01-17 10:02:00,
2013-01-17 02:12:00,42.0,-99.9,30.41,SSE,160,2.0,6.0,0,-99.99,,,-99.99,,2013-01-17 10:12:00,
2013-01-17 02:22:00,42.0,-99.9,30.41,SSE,150,3.0,5.0,0,-99.99,,,-99.99,,2013-01-17 10:22:00,
2013-01-17 02:33:00,42.0,-99.9,30.41,SSE,150,3.0,5.0,0,-99.99,,,-99.99,,2013-01-17 10:33:00,
2013-01-17 02:43:00,42.0,-99.9,30.40,SE,140,5.0,8.0,0,-99.99,,,-99.99,,2013-01-17 10:43:00,
2013-01-17 02:53:00,42.0,-99.9,30.40,SE,140,5.0,8.0,0,-99.99,,,-99.99,,2013-01-17 10:53:00,
2013-01-17 03:03:00,42.0,-99.9,30.40,SSE,150,1.0,6.0,0,-99.99,,,-99.99,,2013-01-17 11:03:00,
2013-01-17 03:12:00,43.0,-99.9,30.40,SSE,160,3.0,8.0,0,-99.99,,,-99.99,,2013-01-17 11:12:00,
2013-01-17 03:23:00,43.0,-99.9,30.40,SSE,150,3.0,8.0,0,-99.99,,,-99.99,,2013-01-17 11:23:00,
2013-01-17 03:33:00,43.0,-99.9,30.40,SSE,150,3.0,8.0,0,-99.99,,,-99.99,,2013-01-17 11:33:00,
2013-01-17 03:43:00,43.0,-99.9,30.40,SSE,155,3.0,9.0,0,-99.99,,,-99.99,,2013-01-17 11:43:00,
2013-01-17 03:53:00,43.0,-99.9,30.40,SSE,155,3.0,9.0,0,-99.99,,,-99.99,,2013-01-17 11:53:00,
2013-01-17 04:03:00,42.0,-99.9,30.39,SSW,195,3.0,12.0,0,-99.99,,,-99.99,,2013-01-17 12:03:00,
2013-01-17 04:12:00,42.0,-99.9,30.38,South,180,6.0,8.0,0,-99.99,,,-99.99,,2013-01-17 12:12:00,
2013-01-17 04:23:00,41.0,-99.9,30.38,SE,130,7.0,10.0,0,-99.99,,,-99.99,,2013-01-17 12:23:00,
2013-01-17 04:33:00,41.0,-99.9,30.38,SE,130,7.0,10.0,0,-99.99,,,-99.99,,2013-01-17 12:33:00,
2013-01-17 04:43:00,43.0,-99.9,30.37,ESE,115,5.0,9.0,0,-99.99,,,-99.99,,2013-01-17 12:43:00,
2013-01-17 04:53:00,43.0,-99.9,30.37,ESE,115,5.0,9.0,0,-99.99,,,-99.99,,2013-01-17 12:53:00,
2013-01-17 05:03:00,43.0,-99.9,30.37,SSW,205,3.0,10.0,0,-99.99,,,-99.99,,2013-01-17 13:03:00,
2013-01-17 05:13:00,42.0,-99.9,30.37,SSE,160,6.0,12.0,0,-99.99,,,-99.99,,2013-01-17 13:13:00,
2013-01-17 05:23:00,42.0,-99.9,30.37,South,170,3.0,10.0,0,-99.99,,,-99.99,,2013-01-17 13:23:00,
2013-01-17 05:33:00,42.0,-99.9,30.37,South,170,3.0,10.0,0,-99.99,,,-99.99,,2013-01-17 13:33:00,
2013-01-17 05:43:00,42.0,-99.9,30.36,ESE,120,6.0,13.0,0,-99.99,,,-99.99,,2013-01-17 13:43:00,
2013-01-17 05:53:00,42.0,-99.9,30.36,ESE,120,6.0,13.0,0,-99.99,,,-99.99,,2013-01-17 13:53:00,
2013-01-17 06:03:00,41.0,-99.9,30.36,East,100,8.0,8.0,0,-99.99,,,-99.99,,2013-01-17 14:03:00,
2013-01-17 06:13:00,41.0,-99.9,30.36,SSE,155,3.0,7.0,0,-99.99,,,-99.99,,2013-01-17 14:13:00,
2013-01-17 06:23:00,41.0,-99.9,30.36,SSE,160,1.0,5.0,0,-99.99,,,-99.99,,2013-01-17 14:23:00,
2013-01-17 06:33:00,41.0,-99.9,30.36,SSE,160,1.0,5.0,0,-99.99,,,-99.99,,2013-01-17 14:33:00,
2013-01-17 06:43:00,40.0,-99.9,30.36,SE,140,3.0,5.0,0,-99.99,,,-99.99,,2013-01-17 14:43:00,
2013-01-17 06:53:00,40.0,-99.9,30.36,SE,140,3.0,5.0,0,-99.99,,,-99.99,,2013-01-17 14:53:00,
2013-01-17 07:03:00,40.0,-99.9,30.36,SSE,155,1.0,5.0,0,-99.99,,,-99.99,,2013-01-17 15:03:00,
2013-01-17 07:13:00,40.0,-99.9,30.36,SE,125,0.0,2.0,0,-99.99,,,-99.99,,2013-01-17 15:13:00,
2013-01-17 07:23:00,40.0,-99.9,30.37,SSE,160,0.0,1.0,0,-99.99,,,-99.99,,2013-01-17 15:23:00,
2013-01-17 07:33:00,40.0,-99.9,30.37,SSE,160,0.0,1.0,0,-99.99,,,-99.99,,2013-01-17 15:33:00,
2013-01-17 07:43:00,40.0,-99.9,30.37,SSE,155,2.0,3.0,0,-99.99,,,-99.99,,2013-01-17 15:43:00,
2013-01-17 07:53:00,40.0,-99.9,30.37,SSE,150,2.0,3.0,0,-99.99,,,-99.99,,2013-01-17 15:53:00,
2013-01-17 08:03:00,40.0,-99.9,30.37,SSE,150,2.0,3.0,0,-99.99,,,-99.99,,2013-01-17 16:03:00,
2013-01-17 08:13:00,40.0,-99.9,30.37,SE,145,1.0,3.0,0,-99.99,,,-99.99,,2013-01-17 16:13:00,
2013-01-17 08:23:00,40.0,-99.9,30.37,SE,140,1.0,3.0,0,-99.99,,,-99.99,,2013-01-17 16:23:00,
2013-01-17 08:34:00,40.0,-99.9,30.37,SE,140,1.0,3.0,0,-99.99,,,-99.99,,2013-01-17 16:34:00,
2013-01-17 08:44:00,41.0,-99.9,30.38,SE,135,1.0,5.0,0,-99.99,,,-99.99,,2013-01-17 16:44:00,
2013-01-17 08:53:00,41.0,-99.9,30.38,SE,135,1.0,5.0,0,-99.99,,,-99.99,,2013-01-17 16:53:00,
2013-01-17 09:03:00,41.0,-99.9,30.38,South,170,2.0,3.0,0,-99.99,,,-99.99,,2013-01-17 17:03:00,
2013-01-17 09:13:00,42.0,-99.9,30.38,SSE,165,2.0,5.0,0,-99.99,,,-99.99,,2013-01-17 17:13:00,
2013-01-17 09:23:00,44.0,-99.9,30.38,South,175,2.0,10.0,0,-99.99,,,-99.99,,2013-01-17 17:23:00,
2013-01-17 09:33:00,44.0,-99.9,30.38,South,175,2.0,10.0,0,-99.99,,,-99.99,,2013-01-17 17:33:00,
2013-01-17 09:43:00,44.0,-99.9,30.38,SSE,155,3.0,12.0,0,-99.99,,,-99.99,,2013-01-17 17:43:00,
2013-01-17 09:54:00,44.0,-99.9,30.38,SSE,155,3.0,12.0,0,-99.99,,,-99.99,,2013-01-17 17:54:00,
2013-01-17 10:04:00,44.0,-99.9,30.38,SSE,155,3.0,12.0,0,-99.99,,,-99.99,,2013-01-17 18:04:00,
2013-01-17 10:13:00,45.0,-99.9,30.38,SSW,195,5.0,12.0,0,-99.99,,,-99.99,,2013-01-17 18:13:00,
2013-01-17 10:23:00,45.0,-99.9,30.37,SSW,195,3.0,12.0,0,-99.99,,,-99.99,,2013-01-17 18:23:00,
2013-01-17 10:34:00,45.0,-99.9,30.37,SSW,195,3.0,12.0,0,-99.99,,,-99.99,,2013-01-17 18:34:00,
2013-01-17 10:44:00,46.0,-99.9,30.37,SE,140,7.0,12.0,0,-99.99,,,-99.99,,2013-01-17 18:44:00,
2013-01-17 10:54:00,46.0,-99.9,30.37,SE,140,7.0,12.0,0,-99.99,,,-99.99,,2013-01-17 18:54:00,
2013-01-17 11:04:00,47.0,-99.9,30.37,SSW,200,1.0,9.0,0,-99.99,,,-99.99,,2013-01-17 19:04:00,
2013-01-17 11:13:00,47.0,-99.9,30.37,West,275,2.0,6.0,0,-99.99,,,-99.99,,2013-01-17 19:13:00,
2013-01-17 11:23:00,48.0,-99.9,30.37,SW,220,1.0,8.0,0,-99.99,,,-99.99,,2013-01-17 19:23:00,
2013-01-17 11:33:00,48.0,-99.9,30.37,SW,220,1.0,8.0,0,-99.99,,,-99.99,,2013-01-17 19:33:00,
2013-01-17 11:43:00,48.0,-99.9,30.36,SSE,150,6.0,8.0,0,-99.99,,,-99.99,,2013-01-17 19:43:00,
2013-01-17 11:54:00,48.0,-99.9,30.36,SSE,150,6.0,8.0,0,-99.99,,,-99.99,,2013-01-17 19:54:00,
2013-01-17 12:03:00,49.0,-99.9,30.35,SSE,150,5.0,9.0,0,-99.99,,,-99.99,,2013-01-17 20:03:00,
2013-01-17 12:13:00,49.0,-99.9,30.35,SSE,160,3.0,9.0,0,-99.99,,,-99.99,,2013-01-17 20:13:00,
2013-01-17 12:23:00,50.0,-99.9,30.34,SSE,150,2.0,12.0,0,-99.99,,,-99.99,,2013-01-17 20:23:00,
2013-01-17 12:34:00,50.0,-99.9,30.34,SSE,150,2.0,12.0,0,-99.99,,,-99.99,,2013-01-17 20:34:00,
2013-01-17 12:44:00,50.0,-99.9,30.33,South,170,6.0,13.0,0,-99.99,,,-99.99,,2013-01-17 20:44:00,
2013-01-17 12:54:00,50.0,-99.9,30.33,South,170,6.0,13.0,0,-99.99,,,-99.99,,2013-01-17 20:54:00,
2013-01-17 13:03:00,50.0,-99.9,30.33,ESE,120,13.0,13.0,0,-99.99,,,-99.99,,2013-01-17 21:03:00,
2013-01-17 13:13:00,51.0,-99.9,30.32,SSE,155,3.0,12.0,0,-99.99,,,-99.99,,2013-01-17 21:13:00,
2013-01-17 13:23:00,51.0,-99.9,30.32,South,175,5.0,9.0,0,-99.99,,,-99.99,,2013-01-17 21:23:00,
2013-01-17 13:34:00,51.0,-99.9,30.32,South,175,5.0,9.0,0,-99.99,,,-99.99,,2013-01-17 21:34:00,
2013-01-17 13:43:00,51.0,-99.9,30.31,South,180,3.0,13.0,0,-99.99,,,-99.99,,2013-01-17 21:43:00,
2013-01-17 13:53:00,51.0,-99.9,30.31,South,180,3.0,13.0,0,-99.99,,,-99.99,,2013-01-17 21:53:00,
2013-01-17 14:04:00,51.0,-99.9,30.30,SE,135,3.0,13.0,0,-99.99,,,-99.99,,2013-01-17 22:04:00,
2013-01-17 14:12:00,52.0,-99.9,30.30,South,185,5.0,14.0,0,-99.99,,,-99.99,,2013-01-17 22:12:00,
2013-01-17 14:23:00,52.0,-99.9,30.29,SW,220,3.0,9.0,0,-99.99,,,-99.99,,2013-01-17 22:23:00,
2013-01-17 14:33:00,52.0,-99.9,30.29,SW,220,3.0,9.0,0,-99.99,,,-99.99,,2013-01-17 22:33:00,
2013-01-17 14:43:00,52.0,-99.9,30.29,SE,135,5.0,12.0,0,-99.99,,,-99.99,,2013-01-17 22:43:00,
2013-01-17 14:53:00,52.0,-99.9,30.29,SE,135,5.0,12.0,0,-99.99,,,-99.99,,2013-01-17 22:53:00,
2013-01-17 15:03:00,52.0,-99.9,30.29,SE,135,5.0,12.0,0,-99.99,,,-99.99,,2013-01-17 23:03:00,
2013-01-17 15:12:00,52.0,-99.9,30.29,South,170,3.0,9.0,0,-99.99,,,-99.99,,2013-01-17 23:12:00,
2013-01-17 15:23:00,52.0,-99.9,30.28,SE,140,5.0,10.0,0,-99.99,,,-99.99,,2013-01-17 23:23:00,
2013-01-17 15:33:00,52.0,-99.9,30.28,SE,140,5.0,10.0,0,-99.99,,,-99.99,,2013-01-17 23:33:00,
2013-01-17 15:43:00,52.0,-99.9,30.28,South,175,3.0,10.0,0,-99.99,,,-99.99,,2013-01-17 23:43:00,
2013-01-17 15:53:00,52.0,-99.9,30.28,South,175,3.0,10.0,0,-99.99,,,-99.99,,2013-01-17 23:53:00,
2013-01-17 16:03:00,52.0,-99.9,30.28,SSE,165,3.0,12.0,0,-99.99,,,-99.99,,2013-01-18 00:03:00,
2013-01-17 16:13:00,52.0,-99.9,30.28,SE,125,3.0,10.0,0,-99.99,,,-99.99,,2013-01-18 00:13:00,
2013-01-17 16:23:00,52.0,-99.9,30.28,SE,125,3.0,10.0,0,-99.99,,,-99.99,,2013-01-18 00:23:00,
2013-01-17 16:33:00,51.0,-99.9,30.29,SSE,165,7.0,9.0,0,-99.99,,,-99.99,,2013-01-18 00:33:00,
2013-01-17 16:43:00,50.0,-99.9,30.29,South,190,3.0,10.0,0,-99.99,,,-99.99,,2013-01-18 00:43:00,
2013-01-17 16:53:00,50.0,-99.9,30.29,South,190,3.0,10.0,0,-99.99,,,-99.99,,2013-01-18 00:53:00,
2013-01-17 17:03:00,49.0,-99.9,30.29,SSE,150,3.0,9.0,0,-99.99,,,-99.99,,2013-01-18 01:03:00,
2013-01-17 17:13:00,47.0,-99.9,30.29,SSE,150,5.0,9.0,0,-99.99,,,-99.99,,2013-01-18 01:13:00,
2013-01-17 17:23:00,45.0,-99.9,30.29,SSE,155,3.0,7.0,0,-99.99,,,-99.99,,2013-01-18 01:23:00,
2013-01-17 17:33:00,45.0,-99.9,30.29,SSE,155,3.0,7.0,0,-99.99,,,-99.99,,2013-01-18 01:33:00,
2013-01-17 17:43:00,44.0,-99.9,30.29,SSE,150,3.0,6.0,0,-99.99,,,-99.99,,2013-01-18 01:43:00,
2013-01-17 17:53:00,44.0,-99.9,30.29,SSE,150,3.0,6.0,0,-99.99,,,-99.99,,2013-01-18 01:53:00,
2013-01-17 18:03:00,45.0,-99.9,30.29,SSE,160,3.0,6.0,0,-99.99,,,-99.99,,2013-01-18 02:03:00,
2013-01-17 18:12:00,44.0,-99.9,30.28,SSE,155,5.0,7.0,0,-99.99,,,-99.99,,2013-01-18 02:12:00,
2013-01-17 18:23:00,43.0,-99.9,30.29,SSE,150,3.0,7.0,0,-99.99,,,-99.99,,2013-01-18 02:23:00,
2013-01-17 18:33:00,43.0,-99.9,30.29,SSE,150,3.0,7.0,0,-99.99,,,-99.99,,2013-01-18 02:33:00,
2013-01-17 18:43:00,42.0,-99.9,30.29,SSE,160,3.0,7.0,0,-99.99,,,-99.99,,2013-01-18 02:43:00,
2013-01-17 18:53:00,42.0,-99.9,30.29,SSE,160,3.0,7.0,0,-99.99,,,-99.99,,2013-01-18 02:53:00,
2013-01-17 19:03:00,42.0,-99.9,30.29,SSE,150,3.0,6.0,0,-99.99,,,-99.99,,2013-01-18 03:03:00,
2013-01-17 19:13:00,42.0,-99.9,30.29,SSE,150,1.0,2.0,0,-99.99,,,-99.99,,2013-01-18 03:13:00,
2013-01-17 19:23:00,42.0,-99.9,30.29,South,175,3.0,9.0,0,-99.99,,,-99.99,,2013-01-18 03:23:00,
2013-01-17 19:33:00,42.0,-99.9,30.29,South,175,3.0,9.0,0,-99.99,,,-99.99,,2013-01-18 03:33:00,
2013-01-17 19:43:00,43.0,-99.9,30.29,SE,145,5.0,10.0,0,-99.99,,,-99.99,,2013-01-18 03:43:00,
2013-01-17 19:53:00,43.0,-99.9,30.29,SE,145,5.0,10.0,0,-99.99,,,-99.99,,2013-01-18 03:53:00,
2013-01-17 20:03:00,43.0,-99.9,30.29,SSE,150,5.0,12.0,0,-99.99,,,-99.99,,2013-01-18 04:03:00,
2013-01-17 20:12:00,43.0,-99.9,30.29,South,170,6.0,12.0,0,-99.99,,,-99.99,,2013-01-18 04:12:00,
2013-01-17 20:22:00,42.0,-99.9,30.29,SSE,165,3.0,7.0,0,-99.99,,,-99.99,,2013-01-18 04:22:00,
2013-01-17 20:33:00,42.0,-99.9,30.29,SSE,165,3.0,7.0,0,-99.99,,,-99.99,,2013-01-18 04:33:00,
2013-01-17 20:43:00,41.0,-99.9,30.30,SE,130,2.0,5.0,0,-99.99,,,-99.99,,2013-01-18 04:43:00,
2013-01-17 20:53:00,41.0,-99.9,30.30,SSE,165,5.0,8.0,0,-99.99,,,-99.99,,2013-01-18 04:53:00,
2013-01-17 21:04:00,41.0,-99.9,30.30,SSE,165,5.0,8.0,0,-99.99,,,-99.99,,2013-01-18 05:04:00,
2013-01-17 21:12:00,42.0,-99.9,30.30,SSE,165,5.0,10.0,0,-99.99,,,-99.99,,2013-01-18 05:12:00,
2013-01-17 21:22:00,42.0,-99.9,30.30,SSE,155,3.0,10.0,0,-99.99,,,-99.99,,2013-01-18 05:22:00,
2013-01-17 21:33:00,42.0,-99.9,30.30,SSE,155,3.0,10.0,0,-99.99,,,-99.99,,2013-01-18 05:33:00,
2013-01-17 21:43:00,42.0,-99.9,30.29,SSE,150,6.0,12.0,0,-99.99,,,-99.99,,2013-01-18 05:43:00,
2013-01-17 21:53:00,42.0,-99.9,30.29,SSE,150,6.0,12.0,0,-99.99,,,-99.99,,2013-01-18 05:53:00,
2013-01-17 22:02:00,42.0,-99.9,30.30,SE,135,7.0,12.0,0,-99.99,,,-99.99,,2013-01-18 06:02:00,
2013-01-17 22:12:00,43.0,-99.9,30.30,SE,140,6.0,13.0,0,-99.99,,,-99.99,,2013-01-18 06:12:00,
2013-01-17 22:23:00,42.0,-99.9,30.30,SSE,160,3.0,9.0,0,-99.99,,,-99.99,,2013-01-18 06:23:00,
2013-01-17 22:33:00,42.0,-99.9,30.30,SSE,160,3.0,9.0,0,-99.99,,,-99.99,,2013-01-18 06:33:00,
2013-01-17 22:43:00,41.0,-99.9,30.30,South,185,5.0,12.0,0,-99.99,,,-99.99,,2013-01-18 06:43:00,
2013-01-17 22:53:00,41.0,-99.9,30.30,South,185,5.0,12.0,0,-99.99,,,-99.99,,2013-01-18 06:53:00,
2013-01-17 23:02:00,40.0,-99.9,30.30,SSE,150,5.0,10.0,0,-99.99,,,-99.99,,2013-01-18 07:02:00,
2013-01-17 23:12:00,40.0,-99.9,30.30,SE,145,3.0,12.0,0,-99.99,,,-99.99,,2013-01-18 07:12:00,
2013-01-17 23:22:00,40.0,-99.9,30.30,SE,140,3.0,12.0,0,-99.99,,,-99.99,,2013-01-18 07:22:00,
2013-01-17 23:33:00,40.0,-99.9,30.30,SE,140,3.0,12.0,0,-99.99,,,-99.99,,2013-01-18 07:33:00,
2013-01-17 23:43:00,40.0,-99.9,30.30,SSE,160,3.0,12.0,0,-99.99,,,-99.99,,2013-01-18 07:43:00,
2013-01-17 23:52:00,40.0,-99.9,30.30,SSE,160,3.0,12.0,0,-99.99,,,-99.99,,2013-01-18 07:52:00,